Temperature
25 23 23 24 24 25 25 24 24 24 25 24 23 23 22 22 22 21 21 21 21 21 22 22 21 21 21 20 20 20 20 20 19 19 19 18 18 18 18 18 18 18 18 18
23 23 24 25 24 25 25 24 24 24 24 24 23 23 22 21 22 22 22 21 21 21 21 22 22 21 21 21 21 20 20 20 20 19 19 19 19 18 18 18 18 18 18 18
24 24 25 25 25 25 24 24 24 24 24 24 24 23 22 22 22 22 22 22 22 22 22 22 22 22 22 21 21 21 20 20 20 19 19 19 18 18 18 18 18 18 18 18
24 24 25 25 25 25 24 25 25 24 23 22 23 22 22 21 21 21 22 22 22 22 22 22 22 22 22 22 21 21 21 20 20 19 19 19 19 19 19 19 18 18 18 18
24 24 25 25 25 25 25 25 24 23 22 21 21 21 21 21 21 21 21 22 22 22 22 23 23 23 22 22 22 21 21 20 20 20 19 19 19 19 19 18 18 18 18 18
23 24 25 25 25 25 24 23 22 19 20 21 21 21 21 20 21 21 21 22 22 22 22 23 23 23 22 22 22 21 21 21 20 20 19 19 19 19 19 19 18 18 18 18
24 24 24 25 24 24 23 21 21 21 20 20 20 21 20 22 21 22 22 22 22 22 22 22 22 22 22 22 22 21 21 21 20 20 20 19 19 19 19 19 18 18 18 18
22 22 24 24 24 23 22 21 21 21 20 20 20 20 21 22 22 22 23 23 23 22 22 22 23 23 23 22 22 21 21 21 20 20 20 19 19 19 19 19 18 18 18 18
21 22 23 24 24 23 22 20 20 19 20 20 19 19 20 21 21 21 21 22 22 22 22 22 22 23 22 22 22 22 21 21 20 20 20 19 19 19 19 18 18 18 18 18
21 22 23 23 23 23 22 19 18 18 19 20 21 20 20 22 21 20 20 21 21 22 22 22 22 22 22 22 22 21 21 21 20 20 20 19 19 19 19 18 18 18 18 18
21 21 22 22 23 22 21 20 18 16 18 19 20 20 21 20 20 20 20 20 20 21 22 22 22 22 21 21 21 21 21 21 20 20 20 19 19 19 19 18 18 18 18 18
19 18 19 21 21 22 21 20 18 19 19 17 18 20 21 19 19 19 19 20 20 21 21 22 22 21 21 21 20 20 21 20 20 20 20 19 19 19 19 18 18 18 18 18
19 18 19 20 21 21 21 19 18 17 16 15 18 20 20 18 18 18 19 19 20 20 21 21 21 21 20 20 20 20 20 20 20 20 19 19 19 19 18 18 18 18 18 17
18 17 19 20 19 20 21 20 18 17 17 16 17 19 19 18 18 18 18 19 19 20 20 20 20 20 20 20 19 19 19 19 19 19 19 19 19 18 18 18 18 17 17 17
18 17 18 19 20 20 20 20 19 19 18 18 18 18 19 18 18 17 18 18 18 19 19 19 19 19 19 19 19 19 19 19 19 19 19 18 18 18 18 18 18 17 17 17
15 17 18 19 19 19 20 20 20 19 19 19 19 18 18 18 18 17 17 17 17 18 18 19 19 19 19 19 19 19 19 19 19 18 18 18 18 18 18 17 17 17 17 17
14 16 17 17 18 19 19 19 19 19 19 19 19 19 17 16 16 17 17 17 17 18 18 18 18 18 18 18 18 18 18 18 18 18 18 18 17 17 17 17 17 17 17 16
14 14 14 15 18 18 18 18 19 19 18 18 18 17 17 17 17 17 18 18 18 18 18 18 18 18 18 18 18 18 18 18 17 17 17 17 17 17 17 17 16 16 16 16
13 14 13 14 16 17 18 18 18 18 18 17 17 17 16 16 16 16 17 18 18 18 18 18 18 18 18 18 17 17 17 17 17 17 17 17 16 16 16 16 16 16 16 16
12 13 13 14 16 16 17 18 18 18 18 17 17 16 16 16 16 16 17 17 18 18 18 17 17 17 17 17 17 17 17 16 16 16 16 16 16 16 16 16 15 16 15 15
14 13 13 14 15 16 17 17 18 18 18 17 17 17 16 16 17 17 17 17 17 17 17 17 17 17 17 17 17 17 16 16 16 16 16 15 15 15 15 15 15 15 15 15
14 14 13 13 15 16 16 16 17 16 17 17 17 17 17 17 17 17 17 17 17 17 17 16 16 16 16 16 16 16 16 16 15 15 15 15 15 15 15 15 14 14 14 14
13 13 12 13 14 14 15 16 17 17 16 17 17 17 17 16 16 16 16 16 16 16 16 16 16 16 15 16 16 16 15 15 15 15 15 15 14 14 14 14 14 14 14 13
12 12 12 12 13 14 15 16 17 17 17 17 17 17 17 16 16 16 16 15 15 15 15 15 15 15 15 15 15 15 15 14 14 14 14 14 14 14 14 13 13 13 13 13
12 12 12 12 13 14 15 16 16 17 17 16 16 16 16 16 15 15 15 15 15 14 14 14 14 14 14 14 14 14 14 14 14 14 14 14 13 13 13 13 13 13 13 13
11 12 12 13 13 13 14 16 16 16 16 16 16 16 16 16 15 15 15 14 14 14 14 14 14 14 13 13 13 13 13 13 13 13 13 13 13 13 13 12 12 12 12 12
Wind_Speed
3 5 4 7 8 6 6 5 4 5 4 5 6 6 6 8 8 9 10 10 11 12 10 9 10 10 9 8 8 8 8 6 6 4 3 3 3 2 2 3 4 5 5 5
4 2 7 6 5 5 5 4 4 3 1 4 4 4 4 9 12 12 12 13 13 9 7 9 10 10 11 11 10 9 9 8 7 5 4 3 3 2 2 2 3 5 5 5
7 5 3 5 4 5 4 6 6 4 1 2 2 4 4 5 7 8 9 10 11 13 12 11 12 12 11 12 12 11 10 9 8 7 4 3 3 2 1 2 2 3 5 5
4 4 3 4 4 6 4 6 6 5 4 2 2 3 7 5 6 10 11 11 12 11 11 11 12 12 13 13 11 10 10 9 8 8 7 7 5 4 4 3 2 2 3 4
5 4 5 4 5 7 6 2 4 3 4 1 1 2 8 1 6 11 12 12 12 12 13 13 14 14 12 11 11 10 9 8 8 8 9 8 6 4 3 2 3 2 2 3
4 2 4 5 2 5 5 7 7 6 5 1 4 4 7 4 7 7 10 12 12 12 12 12 12 10 10 10 9 9 9 8 8 9 9 9 8 6 5 4 4 3 2 2
3 3 1 3 3 3 6 6 4 3 3 6 3 4 9 8 7 7 8 11 11 11 12 11 11 12 12 12 11 10 10 9 8 9 9 9 8 8 7 6 5 4 3 3
3 5 4 3 6 6 5 9 8 6 6 5 1 6 8 6 5 4 4 4 7 9 11 12 13 13 13 13 11 10 10 9 9 9 8 7 7 6 6 6 5 5 4 4
7 6 4 3 3 9 6 4 6 7 3 2 5 6 8 4 5 3 1 2 4 7 9 10 10 11 11 11 11 11 10 9 9 9 8 7 7 7 6 5 5 4 4 4
8 4 4 2 4 4 6 8 6 6 6 4 5 5 5 6 6 5 2 3 3 4 6 7 8 10 10 10 9 9 10 9 8 8 8 7 6 7 6 6 6 5 5 4
5 5 3 2 3 5 4 4 5 5 5 7 5 7 6 7 6 5 5 3 2 4 5 6 6 7 8 8 8 9 8 7 7 7 7 6 6 6 6 6 6 5 5 5
4 5 2 5 4 3 5 7 7 5 5 5 5 8 4 4 4 3 2 1 0 1 3 5 5 6 7 8 7 8 8 8 8 7 7 6 6 6 5 5 5 5 5 4
5 6 2 4 4 2 3 3 4 6 5 5 5 7 3 1 1 1 0 1 2 3 3 4 5 6 7 7 7 7 7 8 7 7 6 6 6 6 6 6 5 5 5 4
4 5 7 9 8 4 2 3 4 6 5 5 8 8 5 3 2 1 0 1 2 3 4 4 4 4 5 5 6 7 7 7 7 7 7 6 6 6 6 5 5 5 5 5
4 4 4 5 4 3 3 4 5 7 8 9 8 8 9 7 5 3 2 2 3 3 3 3 3 3 4 5 5 6 6 6 6 6 7 6 5 4 4 4 4 4 4 5
3 3 2 2 3 3 3 5 6 6 6 6 5 7 6 3 3 2 3 4 4 3 3 3 3 3 4 4 4 5 5 5 6 7 6 5 5 5 4 4 4 4 4 4
1 4 3 3 2 1 5 7 7 5 5 7 9 8 4 4 6 6 5 5 5 5 4 3 3 4 4 4 4 4 4 5 6 6 5 5 5 5 4 4 4 4 4 4
5 4 3 2 2 6 8 3 4 4 4 5 5 5 6 5 3 2 4 6 5 5 4 3 3 4 3 3 3 3 4 5 6 5 5 5 5 5 4 4 4 4 4 4
6 7 4 4 4 5 6 2 3 4 4 3 5 4 4 5 3 1 2 4 5 4 4 3 3 4 4 4 4 5 4 4 4 4 4 4 4 4 4 5 5 4 4 4
4 5 5 4 5 7 7 3 2 3 5 4 5 7 7 5 2 4 3 3 4 4 4 3 3 4 4 4 5 6 5 4 3 3 3 3 3 3 4 5 4 3 3 4
2 2 4 5 5 7 5 2 2 5 7 3 5 7 7 5 5 4 4 4 5 4 4 4 4 4 3 4 5 5 4 3 2 2 2 2 2 2 3 3 2 2 2 2
5 4 5 5 4 7 3 2 6 6 2 2 3 4 4 4 4 4 4 5 5 5 4 4 4 3 2 3 4 4 2 1 1 2 2 1 1 1 1 2 2 2 2 2
4 6 5 7 7 5 3 4 4 3 2 2 2 3 5 4 4 4 3 4 4 4 4 3 4 3 2 2 3 3 2 1 2 2 1 1 1 1 1 2 2 2 2 2
2 2 2 2 5 4 3 3 2 1 3 3 4 4 4 5 5 5 4 4 3 3 3 3 4 3 2 1 1 2 1 2 3 2 1 1 1 1 1 1 2 2 2 2
4 2 2 4 5 3 3 2 2 1 2 3 2 3 5 6 5 6 5 5 4 2 2 3 3 3 2 1 1 1 1 2 2 2 1 1 1 1 1 1 1 2 2 3
5 6 5 7 7 5 5 3 2 2 3 4 4 3 4 5 6 6 5 4 4 4 3 3 3 3 2 1 1 1 1 2 2 1 0 0 0 0 0 0 2 2 1 2
Wind_Direction
76 93 174 199 189 183 167 169 216 235 212 173 214 228 205 186 189 198 199 200 204 209 205 191 188 183 177 177 178 182 181 174 161 158 166 167 185 185 184 194 203 202 199 190
56 236 220 188 172 158 160 180 233 274 181 173 218 251 221 198 206 205 204 204 206 202 191 189 187 186 185 185 185 184 185 178 176 178 169 161 157 171 183 191 195 204 201 195
178 225 188 155 150 157 182 191 206 205 38 53 99 309 243 226 216 218 214 209 203 199 195 193 192 193 189 189 190 193 190 183 181 169 143 123 107 97 144 189 207 207 200 197
206 237 174 159 181 161 226 218 185 161 130 262 150 256 275 234 228 225 220 211 207 201 196 195 194 194 195 195 191 190 186 183 179 168 165 165 174 187 200 193 198 202 198 196
221 193 169 194 209 171 204 160 134 135 140 89 7 187 284 256 244 242 229 219 213 202 195 196 198 198 196 190 187 188 183 183 180 177 178 177 183 189 178 163 170 189 201 196
233 228 183 201 199 161 136 74 61 55 77 260 231 180 273 238 230 248 232 221 212 202 197 199 198 190 189 185 185 184 182 189 183 182 182 184 184 179 172 180 189 196 201 199
306 299 255 152 95 72 99 97 47 6 4 247 230 188 245 251 237 233 232 224 210 199 194 194 191 189 189 186 187 185 185 191 187 185 189 190 188 184 188 191 196 194 198 209
180 269 237 185 171 173 171 144 160 190 214 259 247 224 248 266 273 253 236 217 200 194 195 196 196 193 192 188 185 184 187 190 185 187 193 190 186 188 195 193 190 194 200 208
173 236 275 225 187 147 142 170 166 143 161 208 264 276 297 298 313 313 284 196 198 198 198 200 194 189 187 185 184 184 184 187 188 188 184 183 186 188 192 190 191 197 199 198
157 210 276 279 85 49 139 145 107 129 155 222 268 259 253 279 282 290 268 237 219 198 193 195 192 185 181 180 179 180 183 186 183 181 184 190 190 193 193 187 192 196 200 195
140 165 292 29 157 176 104 105 113 126 155 167 229 257 226 232 242 252 255 246 216 196 188 192 192 179 173 169 172 177 180 176 175 179 180 180 184 192 193 194 200 200 202 199
140 133 219 261 266 205 157 160 147 157 212 185 190 254 274 234 241 244 275 315 26 142 152 170 168 157 163 168 170 172 174 175 177 178 178 182 183 186 193 200 201 195 197 202
134 120 94 342 344 20 112 147 145 129 126 161 182 254 304 339 319 326 0 16 65 93 107 130 144 154 164 168 170 172 175 180 173 167 174 183 191 193 201 200 196 193 194 198
121 129 171 199 216 200 191 188 155 136 158 196 216 239 273 275 275 298 198 157 120 114 112 115 129 150 160 166 169 173 177 176 172 168 176 187 194 195 195 194 193 195 193 196
105 155 196 219 217 189 205 218 196 192 192 194 221 220 240 232 220 216 176 139 119 107 107 119 133 143 148 152 161 169 175 175 171 169 181 194 192 185 183 186 190 193 196 206
74 144 152 248 231 201 230 239 217 213 205 206 212 243 242 206 178 187 176 156 152 155 156 154 138 127 136 147 153 161 171 172 162 172 183 183 176 178 187 196 191 190 200 205
103 134 144 223 255 20 255 233 216 211 205 186 210 226 184 187 196 201 192 175 177 179 176 159 143 146 148 153 149 158 169 162 162 171 174 177 180 186 191 198 199 201 209 208
156 135 147 165 139 218 241 238 193 192 234 214 204 194 190 199 195 201 186 178 177 171 160 145 135 137 142 151 141 134 138 148 158 169 172 174 180 190 191 190 199 208 211 213
167 151 145 147 184 256 283 246 171 182 248 222 185 171 150 123 79 4 201 176 176 166 158 156 153 147 145 142 139 130 129 134 142 157 168 177 181 191 198 203 210 214 215 225
102 122 139 152 172 221 238 238 204 149 254 225 177 171 163 134 156 230 201 162 147 134 131 130 121 118 125 129 130 130 140 142 155 170 174 178 181 191 207 212 215 213 212 232
87 96 157 181 206 246 249 263 105 176 236 216 187 181 172 185 202 184 153 153 147 133 127 122 118 121 129 135 129 129 140 159 181 170 149 166 190 206 216 206 206 206 209 225
175 167 185 170 193 242 259 136 181 220 253 176 176 181 172 162 137 137 143 145 138 127 122 126 125 115 110 116 123 129 156 185 149 148 160 171 195 221 232 207 209 204 196 210
194 193 186 192 215 248 249 224 234 204 204 221 181 174 152 149 154 147 147 145 139 134 133 137 134 117 89 101 132 149 187 161 144 147 174 194 197 217 256 217 209 219 210 211
254 166 164 242 264 274 277 276 279 207 195 190 170 160 150 154 158 149 144 142 136 134 136 134 125 122 125 130 134 171 179 160 147 161 172 176 193 250 302 257 213 210 216 225
230 189 204 254 263 297 299 269 222 129 123 133 139 149 156 148 155 154 149 148 148 145 141 134 133 143 163 161 118 113 128 135 146 160 160 157 161 195 236 277 258 242 242 234
222 206 207 236 233 218 240 237 208 160 174 172 152 143 140 143 148 145 147 150 148 146 137 126 119 129 141 128 109 97 129 140 146 153 167 182 161 206 238 2 355 3 326 314
Height
1472 1479 1485 1483 1482 1483 1487 1493 1496 1492 1485 1489 1492 1492 1490 1491 1493 1495 1496 1498 1499 1501 1504 1507 1510 1513 1516 1518 1520 1522 1524 1526 1528 1529 1530 1532 1533 1535 1536 1538 1539 1540 1542 1543
1478 1481 1475 1475 1478 1481 1486 1493 1495 1490 1485 1488 1492 1492 1489 1490 1489 1490 1492 1494 1496 1499 1502 1504 1507 1510 1513 1515 1518 1520 1522 1524 1526 1528 1530 1532 1533 1535 1536 1538 1539 1540 1541 1542
1477 1475 1471 1474 1479 1483 1487 1491 1491 1492 1489 1489 1493 1497 1492 1488 1488 1489 1490 1491 1492 1495 1497 1500 1504 1506 1509 1512 1515 1517 1520 1522 1524 1527 1529 1531 1533 1534 1535 1536 1538 1539 1540 1541
1473 1470 1471 1474 1478 1480 1489 1480 1482 1487 1497 1505 1499 1514 1495 1489 1487 1485 1485 1487 1488 1490 1494 1496 1499 1502 1505 1509 1512 1515 1518 1520 1523 1525 1527 1529 1531 1532 1534 1535 1537 1538 1539 1540
1473 1469 1470 1474 1474 1475 1479 1476 1481 1487 1497 1506 1504 1512 1502 1490 1489 1482 1480 1481 1483 1485 1489 1492 1494 1497 1501 1506 1509 1512 1515 1518 1521 1523 1525 1527 1529 1531 1533 1534 1535 1537 1538 1538
1467 1465 1466 1468 1468 1470 1474 1481 1488 1497 1505 1517 1508 1513 1507 1493 1484 1477 1474 1476 1477 1480 1483 1487 1491 1495 1498 1502 1506 1509 1512 1515 1518 1520 1523 1525 1527 1529 1531 1532 1533 1535 1536 1536
1472 1467 1464 1465 1471 1473 1477 1494 1514 1517 1526 1521 1505 1508 1501 1478 1473 1471 1470 1469 1472 1475 1479 1482 1486 1490 1494 1497 1501 1505 1508 1511 1515 1518 1520 1522 1524 1527 1528 1530 1532 1532 1533 1534
1483 1483 1467 1464 1468 1476 1480 1488 1512 1523 1527 1519 1507 1507 1488 1471 1468 1467 1467 1467 1469 1472 1475 1478 1481 1484 1488 1492 1497 1501 1505 1508 1511 1514 1517 1519 1522 1524 1526 1527 1529 1530 1531 1532
1482 1481 1463 1461 1460 1466 1480 1487 1487 1506 1512 1518 1512 1500 1482 1468 1466 1465 1465 1466 1467 1469 1472 1475 1478 1481 1485 1489 1493 1497 1501 1505 1508 1511 1514 1516 1518 1520 1522 1524 1526 1527 1528 1529
1468 1477 1466 1461 1461 1465 1469 1479 1495 1507 1520 1523 1510 1503 1493 1474 1469 1466 1465 1464 1465 1467 1469 1472 1476 1478 1481 1485 1490 1495 1498 1502 1505 1508 1511 1513 1515 1517 1519 1521 1523 1524 1525 1526
1463 1474 1472 1466 1468 1473 1476 1482 1490 1502 1505 1517 1518 1503 1473 1470 1466 1465 1463 1463 1464 1465 1467 1470 1473 1476 1480 1483 1488 1491 1495 1498 1502 1505 1508 1510 1512 1514 1516 1517 1519 1521 1522 1523
1463 1474 1482 1473 1464 1462 1466 1475 1486 1497 1503 1507 1508 1496 1465 1464 1462 1462 1463 1463 1464 1464 1465 1469 1472 1474 1477 1481 1484 1488 1492 1495 1498 1501 1504 1506 1509 1511 1512 1514 1516 1517 1518 1520
1462 1475 1488 1484 1478 1469 1469 1472 1477 1486 1498 1508 1507 1491 1464 1463 1462 1463 1463 1464 1464 1464 1466 1468 1470 1473 1475 1478 1481 1485 1488 1491 1494 1497 1500 1503 1505 1507 1509 1510 1512 1514 1515 1516
1457 1471 1479 1485 1480 1472 1471 1471 1475 1482 1495 1500 1494 1481 1469 1465 1464 1463 1463 1463 1464 1465 1466 1467 1469 1471 1474 1477 1479 1482 1484 1488 1491 1493 1497 1500 1502 1504 1505 1507 1509 1510 1512 1513
1457 1469 1468 1467 1464 1465 1467 1468 1470 1475 1478 1483 1478 1475 1467 1463 1462 1462 1463 1463 1464 1465 1466 1467 1469 1471 1473 1475 1477 1480 1482 1485 1488 1490 1494 1496 1498 1500 1502 1503 1505 1507 1508 1509
1460 1466 1467 1468 1464 1464 1466 1464 1464 1466 1467 1469 1469 1469 1460 1460 1461 1462 1462 1462 1463 1464 1465 1467 1468 1470 1471 1473 1475 1478 1480 1482 1485 1488 1490 1493 1495 1496 1498 1499 1501 1502 1503 1504
1464 1467 1473 1476 1467 1465 1472 1463 1461 1461 1459 1461 1465 1461 1458 1459 1459 1459 1459 1460 1461 1462 1464 1465 1466 1467 1469 1471 1473 1475 1478 1480 1482 1485 1487 1489 1491 1492 1494 1495 1497 1497 1499 1500
1464 1469 1475 1478 1473 1481 1465 1453 1453 1456 1455 1454 1454 1454 1455 1455 1456 1457 1458 1459 1460 1461 1462 1463 1464 1466 1468 1471 1472 1474 1476 1478 1480 1483 1484 1486 1487 1488 1490 1491 1492 1494 1495 1495
1456 1465 1476 1481 1481 1472 1460 1452 1452 1455 1456 1451 1452 1453 1454 1455 1457 1458 1458 1458 1459 1460 1461 1463 1464 1466 1468 1469 1471 1473 1474 1476 1478 1480 1481 1482 1484 1485 1486 1487 1489 1490 1491 1491
1457 1461 1471 1477 1477 1476 1459 1448 1447 1451 1456 1448 1449 1450 1452 1454 1460 1458 1456 1457 1458 1460 1461 1463 1464 1466 1467 1468 1470 1471 1473 1475 1476 1477 1478 1480 1481 1483 1483 1484 1486 1486 1487 1488
1462 1466 1470 1472 1471 1463 1449 1446 1447 1460 1454 1445 1446 1447 1449 1450 1452 1453 1454 1456 1458 1459 1461 1462 1464 1465 1466 1467 1468 1470 1472 1473 1475 1476 1477 1478 1479 1480 1481 1481 1482 1483 1483 1484
1460 1464 1467 1470 1470 1464 1445 1445 1449 1447 1443 1442 1444 1445 1447 1448 1449 1451 1453 1455 1457 1458 1460 1462 1463 1464 1465 1466 1467 1469 1470 1472 1473 1474 1475 1475 1477 1477 1478 1478 1479 1479 1479 1480
1456 1455 1457 1458 1456 1446 1443 1442 1441 1442 1442 1441 1442 1445 1446 1447 1448 1450 1453 1455 1457 1458 1459 1461 1462 1462 1464 1465 1466 1468 1469 1471 1472 1472 1473 1473 1474 1474 1475 1475 1475 1476 1476 1477
1451 1449 1451 1451 1446 1443 1441 1440 1440 1440 1440 1440 1442 1443 1445 1446 1448 1450 1452 1454 1456 1458 1459 1460 1461 1462 1463 1464 1466 1467 1468 1469 1470 1471 1471 1472 1471 1471 1472 1471 1472 1473 1473 1473
1448 1448 1449 1448 1443 1441 1439 1439 1439 1439 1440 1440 1441 1442 1444 1446 1448 1449 1451 1453 1455 1457 1458 1459 1460 1460 1462 1463 1464 1466 1467 1468 1468 1469 1469 1470 1470 1469 1469 1469 1469 1470 1470 1471
1444 1445 1445 1444 1439 1439 1437 1437 1438 1438 1439 1439 1440 1442 1443 1445 1447 1449 1451 1453 1454 1456 1457 1458 1459 1460 1461 1462 1463 1464 1465 1466 1466 1467 1467 1468 1467 1467 1467 1467 1467 1468 1468 1469